Weather History for Spencer, IA

Change the Weather History Date:

Friday, February 7, 2014

  Actual Average Record
Temperature  
Mean Temperature 2 °F -  
Max Temperature 15 °F 26 °F 62 °F (1987)
Min Temperature -11 °F 6 °F -17 °F (1979)
Degree Days  
Heating Degree Days 63    
Moisture  
Dew Point -7 °F    
Average Humidity 73    
Maximum Humidity 79    
Minimum Humidity 59    
Precipitation  
Precipitation 0.00 in - - ()
Sea Level Pressure  
Sea Level Pressure 30.29 in    
Wind  
Wind Speed 9 mph (SSW)    
Max Wind Speed 14 mph    
Max Gust Speed -    
Visibility 10 miles    
Events      
Averages and records for this station are not official NWS values.
T = Trace of Precipitation, MM = Missing Value Source: NWS Daily Summary

Daily Weather History Graph

Daily Weather History Graph

Search for Another Location

Airport:

Trip Planner

Search our weather history database for the weather conditions in past years. The results will help you decide how hot, cold, wet, or windy it might be!

Date:

Astronomy

Feb. 07, 2014 Rise Set
Actual Time 7:29 AM CST 5:41 PM CST
Civil Twilight 6:59 AM CST 6:11 PM CST
Nautical Twilight 6:25 AM CST 6:44 PM CST
Astronomical Twilight 5:52 AM CST 7:17 PM CST
Moon 11:51 AM CST (2/7) 1:47 AM CST (2/7)
Length of Visible Light 11h 11m
Length of Day
10h 12m
First Quarter, 59% of the Moon is Illuminated
Feb 7
First Quarter
Feb 14
Full
Feb 22
Last Quarter
Mar 1
New
Mar 8
First Quarter

Hourly Weather History & Observations

Time (CST) Temp. Windchill Dew Point Humidity Pressure Visibility Wind Dir Wind Speed Gust Speed Precip Events Conditions
12:53 AM -8.0 °F -25.0 °F -14.1 °F 75% 30.40 in 10.0 mi WSW 9.2 mph - N/A   Clear
1:53 AM -8.0 °F -26.1 °F -14.1 °F 75% 30.39 in 10.0 mi WSW 10.4 mph - N/A   Clear
2:53 AM -9.9 °F -27.5 °F -16.1 °F 74% 30.37 in 10.0 mi WSW 9.2 mph - N/A   Clear
3:53 AM -11.9 °F -28.7 °F -18.0 °F 74% 30.35 in 10.0 mi SSW 8.1 mph - N/A   Clear
4:53 AM -11.9 °F -23.8 °F -18.0 °F 74% 30.34 in 10.0 mi SW 4.6 mph - N/A   Clear
5:53 AM -9.9 °F - -17.0 °F 71% 30.34 in 10.0 mi Calm Calm - N/A   Clear
6:53 AM -11.9 °F -27.3 °F -17.0 °F 78% 30.35 in 10.0 mi WSW 6.9 mph - N/A   Clear
7:53 AM -11.0 °F -27.6 °F -17.0 °F 75% 30.35 in 10.0 mi SW 8.1 mph - N/A   Clear
8:53 AM -7.1 °F -25.0 °F -13.0 °F 75% 30.36 in 10.0 mi SW 10.4 mph - N/A   Clear
9:53 AM -2.0 °F -18.7 °F -8.0 °F 76% 30.36 in 10.0 mi SW 10.4 mph - N/A   Clear
10:53 AM 3.9 °F -10.4 °F -2.9 °F 73% 30.34 in 10.0 mi SW 9.2 mph - N/A   Clear
11:53 AM 7.0 °F -8.3 °F -0.0 °F 73% 30.33 in 10.0 mi SW 11.5 mph - N/A   Clear
12:53 PM 10.9 °F -3.4 °F 1.9 °F 67% 30.30 in 10.0 mi SW 11.5 mph - N/A   Clear
1:53 PM 14.0 °F -0.8 °F 5.0 °F 67% 30.27 in 10.0 mi SW 13.8 mph - N/A   Clear
2:53 PM 15.1 °F 0.5 °F 3.9 °F 61% 30.25 in 10.0 mi SW 13.8 mph - N/A   Clear
3:53 PM 15.1 °F 1.1 °F 3.0 °F 59% 30.24 in 10.0 mi SW 12.7 mph - N/A   Clear
4:53 PM 14.0 °F -0.2 °F 1.9 °F 59% 30.23 in 10.0 mi SSW 12.7 mph - N/A   Clear
5:53 PM 7.0 °F -4.5 °F -0.9 °F 70% 30.24 in 10.0 mi South 6.9 mph - N/A   Clear
6:53 PM 3.0 °F -10.5 °F -4.0 °F 73% 30.25 in 10.0 mi South 8.1 mph - N/A   Clear
7:53 PM -0.9 °F -14.1 °F -6.0 °F 79% 30.25 in 10.0 mi South 6.9 mph - N/A   Clear
8:53 PM -2.0 °F -17.7 °F -7.1 °F 79% 30.25 in 10.0 mi South 9.2 mph - N/A   Clear
9:53 PM -0.9 °F -15.3 °F -7.1 °F 75% 30.24 in 10.0 mi South 8.1 mph - N/A   Clear
10:53 PM -4.0 °F -20.2 °F -9.0 °F 79% 30.21 in 10.0 mi SSE 9.2 mph - N/A   Clear
11:33 PM -2.0 °F -16.6 °F -7.1 °F 79% 30.11 in 10.0 mi South 8.1 mph - N/A   Mostly Cloudy
11:53 PM 1.0 °F -10.3 °F -5.1 °F 75% 30.20 in 10.0 mi South 5.8 mph - N/A   Overcast